Home   Weather   Singapore   Past weeks

Flag for Singapore Past Weather in Singapore, Singapore — Yesterday and Last 2 Weeks

Now
81 °F

Partly sunny.


Feels Like: 86 °F
Forecast: 77 / 86 °F
Wind: 9 mph from Northeast

Location: Singapore / Paya Lebar

Current Time: Dec 16, 2017 at 9:43:57 am

Latest Report: Dec 16, 2017 at 9:00 am


Visibility: N/A

Pressure: 29.89 "Hg

Humidity: 84%

Dew Point: 75 °F

Location of SingaporeLocation

Past Weather in Singapore — Graph

°F

Singapore Temperature Yesterday

Maximum temperature yesterday: 90 °F (at 12:00 pm)
Minimum temperature yesterday: 75 °F (at 4:00 pm)
Average temperature yesterday: 82 °F

High & Low Weather Summary for the Past Weeks

 TemperatureHumidityPressure
High95 °F (Dec 1, 3:00 pm)100% (Dec 12, 9:00 pm)29.92 "Hg (Dec 12, 9:00 pm)
Low75 °F (Dec 15, 4:00 pm)25% (Dec 4, 3:00 am)29.65 "Hg (Dec 1, 4:00 pm)
Average82 °F81%29.81 "Hg
* Reported Dec 1 8:00 am — Dec 16 8:00 am, Singapore. Weather by CustomWeather, © 2017

Note: Actual official high and low records may vary slightly from our data, if they occured in-between our weather recording intervals... More about our weather records

Advertising

Singapore Weather History for the Previous 24 Hours

Scroll right to see more
 ConditionsComfort  
Time TempWeatherWind HumidityBarometerVisibility
8:00 am
Sat, Dec 16
79 °FPartly sunny.3 mph89%29.86 "Hg6 mi
7:00 am79 °FBroken clouds.No wind89%29.86 "Hg6 mi
6:00 am79 °FPassing clouds.No wind89%29.86 "HgN/A
5:00 am79 °FPassing clouds.3 mph89%29.83 "HgN/A
4:00 am77 °FPassing clouds.5 mph94%29.83 "HgN/A
3:00 am79 °FPassing clouds.5 mph89%29.83 "HgN/A
2:00 am79 °FPassing clouds.3 mph94%29.86 "HgN/A
1:00 am79 °FPassing clouds.6 mph94%29.86 "HgN/A
12:00 am81 °FPassing clouds.1 mph89%29.89 "HgN/A
11:00 pm
Fri, Dec 15
81 °FPassing clouds.No wind89%29.89 "HgN/A
10:00 pm81 °FPassing clouds.No wind89%29.86 "HgN/A
9:00 pm79 °FPassing clouds.No wind94%29.83 "HgN/A
8:00 pm79 °FPassing clouds.1 mph94%29.83 "HgN/A
7:00 pm79 °FPassing clouds.2 mph89%29.80 "HgN/A
6:00 pm79 °FPartly sunny.5 mph84%29.80 "HgN/A
5:00 pm77 °FThunderstorms. Scattered clouds.2 mph94%29.80 "Hg4 mi
4:00 pm75 °FThunderstorms. Scattered clouds.7 mph94%29.77 "Hg4 mi
3:23 pm82 °FStrong thunderstorms. Scattered clouds.5 mph84%29.80 "Hg1 mi
3:15 pm84 °FStrong thunderstorms. Scattered clouds.9 mph84%29.77 "Hg1 mi
3:00 pm88 °FThunderstorms. Scattered clouds.10 mph70%29.77 "Hg4 mi
2:00 pm90 °FScattered showers. Broken clouds.8 mph63%29.80 "HgN/A
1:00 pm90 °FBroken clouds.9 mph63%29.83 "HgN/A
12:00 pm90 °FBroken clouds.7 mph63%29.86 "HgN/A
11:00 am86 °FBroken clouds.5 mph70%29.89 "HgN/A
10:00 am84 °FBroken clouds.10 mph79%29.89 "HgN/A
9:00 am82 °FPartly sunny.6 mph79%29.89 "Hg6 mi
Weather by CustomWeather, © 2017

See weather overview